Track ONEWEB-0120 now! 10-day predictions ONEWEB-0120 is classified as:
1 47266U 20100J 21024.16667824 -.01480183 00000-0 -14219+0 0 9990 2 47266 87.4594 26.8529 0010776 139.3830 297.6038 14.96709381 5619